Regional Weather Roundup
Issued by NWS Cleveland, OH

Home | Current Version | Previous Version | Graphics & Text | Print | Product List | Glossary On
Versions: 1 2 3 4 5 6 7 8 9 10 11 12 13 14 15 16 17 18 19 20 21 22 23 24 25 26 27 28 29 30 31 32 33 34 35 36 37 38 39 40 41 42 43 44 45 46 47 48 49 50
285
ASUS41 KCLE 161512
RWRCLE
OHIO REGIONAL WEATHER ROUNDUP
NATIONAL WEATHER SERVICE WILMINGTON, OH
1000 AM EST TUE JAN 16 2018

NOTE: "FAIR" INDICATES FEW OR NO CLOUDS BELOW 12,000 FEET WITH NO
SIGNIFICANT WEATHER AND/OR OBSTRUCTIONS TO VISIBILITY.

OHZ001>008-015>018-024>027-034-035-043-044-161600-
   NORTHWEST OHIO

CITY           SKY/WX    TMP DP  RH WIND       PRES   REMARKS
DEFIANCE       CLOUDY     0  -6  76 SW8       30.47R WCI -14
FINDLAY        CLOUDY     3  -4  72 SW15      30.46R WCI -16
TOLEDO EXPRESS LGT SNOW   5   0  79 SW17      30.45R WCI -14
TOLEDO EXEC    LGT SNOW   6   0  76 SW17      30.47R WCI -13
LIMA           FAIR       1  -4  79 SW16      30.45R WCI -19
$$

OHZ009>014-019>023-028>033-038-089-161600-
   NORTHEAST OHIO

CITY           SKY/WX    TMP DP  RH WIND       PRES   REMARKS
CLE-HOPKINS    PTSUNNY    8   1  73 SW12      30.46R WCI  -7
CLE-LAKEFRONT  FAIR       8   0  69 SW17      30.45R WCI -10
CUY CO. ARPT   CLOUDY    10   3  72 W14       30.42R WCI  -5
LORAIN-ELYRIA  LGT SNOW   7   0  73 SW10      30.44R WCI  -8
ASHTABULA      LGT SNOW  17  13  84 NW5       30.39R FOG     WCI  10
AKRON-CANTON   FLURRIES  11   4  73 W12       30.40R WCI  -3
WOOSTER        FAIR       4  -1  80 W13       30.42R WCI -13
MANSFIELD      FAIR       4  -1  80 SW10      30.39S WCI -11
YOUNGSTOWN     LGT SNOW  23  19  85 SW5       30.35R FOG     WCI  17
$$

OHZ042-051>053-060>062-070>072-077>081-161600-
  SOUTHWEST OHIO

CITY           SKY/WX    TMP DP  RH WIND       PRES   REMARKS
CINC-COVINGTON CLOUDY     7   1  76 W13       30.51R WCI  -9
CINC-LUNKEN    FAIR       9   1  70 W10       30.57R WCI  -5
HAMILTON       FAIR       6  -2  69 W10       30.55R WCI  -9
DAYTON         FAIR       1  -3  83 W12       30.49R WCI -16
WRIGHT-PAT AFB NOT AVBL
DAYTON GENERAL FAIR       4  -3  73 W8        30.50R WCI  -9
WILMINGTON     CLOUDY     6   2  83 W9        30.48R WCI  -8
$$

OHZ036-037-039>041-045>050-054>059-063>069-073>076-082>088-161600-
  CENTRAL AND SOUTHEAST OHIO

CITY           SKY/WX    TMP DP  RH WIND       PRES   REMARKS
COLUMBUS       CLOUDY     7   1  76 W13       30.48R WCI  -9
OSU AIRPORT    PTSUNNY    4  -1  80 W12       30.47R WCI -12
BOLTON FIELD   CLOUDY     5   0  78 W7        30.48R WCI  -7
RICKENBACK AFB CLOUDY     8   2  75 W9        30.49R WCI  -5
NEWARK         CLOUDY    11   4  73 W8        30.45R WCI  -1
MARION         CLOUDY     5  -1  76 W7        30.45R HAZE    WCI  -7
LANCASTER      CLOUDY    10   3  73 W7        30.48R WCI  -1
ZANESVILLE     LGT SNOW  13   6  74 W6        30.44S WCI   4
NEW PHILLY     CLOUDY    14   8  77 NW7       30.44R HAZE    WCI   4
$$




USA.gov is the U.S. government's official web portal to all federal, state and local government web resources and services.